User: anonymous   Login
Location: Unspecified
(0.0000°N, 0.0000°E)
Time: 03:15:43
(UTC+01:00)
Language:

Iridium 4 Rocket - Orbit

View from above orbital plane
View from above orbital plane
View from above satellite
View from above satellite

Ground track
Ground track

The orbit data is extracted from the following two-line orbital elements,

1 24797U 97020F   14324.18589541  .00000763  00000-0  16048-3 0  8236
2 24797 086.8942 337.4725 0226774 209.7851 202.1316 14.43296477922329
Epoch (UTC): 20 November 2014 04:27:41
Eccentricity: 0.0226774
inclination: 86.8942°
perigee height: 586 km
apogee height: 909 km
right ascension of ascending node: 337.4725°
argument of perigee: 209.7851°
revolutions per day: 14.43296477
mean anomaly at epoch: 202.1316°
orbit number at epoch: 92232

The dashed part of the orbit path shows where the satellite is in the earth's shadow,  

DLR